Location: Newark
(48.6461°N, 4.3644°W)
Time: 19:33:41
(UTC+00:00)

Transit 4A - Pass Details

Date: 27 January 2020
Orbit: 872 x 973 km, 66.8° (Epoch: 19 February)

Event Time Altitude Azimuth Distance (km) Brightness Sun altitude
Rises 04:37:51 0° 151° (SSE) 3,542 11.2 -32.3°
Reaches altitude 10° 04:42:17 10° 120° (ESE) 2,582 10.8 -31.5°
Maximum altitude 04:44:14 12° 101° (E) 2,454 10.9 -31.2°
Drops below altitude 10° 04:46:10 10° 82° (E) 2,567 11.1 -30.9°
Sets 04:50:31 0° 52° (NE) 3,494 11.7 -30.2°
